Location: Newark
(35.2672°N, 80.7344°W)
Time: 22:23:40
(UTC+00:00)

Vanguard 2 Rocket - Pass Details

Date: 19 January 2020
Orbit: 554 x 3327 km, 32.9° (Epoch: 19 February)

Event Time Altitude Azimuth Distance (km) Brightness Sun altitude
Rises 17:34:46 0° 280° (W) 4,984 10.6 34.4°
Reaches altitude 10° 17:37:45 10° 273° (W) 4,317 10.4 34.4°
Maximum altitude 17:49:31 44° 207° (SSW) 3,350 11.5 34.3°
Drops below altitude 10° 18:06:58 10° 143° (SE) 6,222 11.8 33.8°
Sets 18:12:24 0° 138° (SE) 7,306 12.0 33.6°
